TimeAFT,TemperatureF,Dew PointF,Humidity,Sea Level PressureIn,VisibilityMPH,Wind Direction,Wind SpeedMPH,Gust SpeedMPH,PrecipitationIn,Events,Conditions,WindDirDegrees,DateUTC
12:20 AM,46.4,24.8,43,29.97,6.2,NE,6.9,-,N/A,,Clear,40,2013-12-09 19:50:00
1:20 AM,48.2,24.8,40,29.95,6.2,NE,9.2,-,N/A,,Clear,50,2013-12-09 20:50:00
2:20 AM,46.4,24.8,43,29.94,6.2,ENE,11.5,17.3,N/A,,Clear,60,2013-12-09 21:50:00
3:20 AM,46.4,24.8,43,29.94,6.2,NE,12.7,-,N/A,,Clear,40,2013-12-09 22:50:00
4:20 AM,46.4,23.0,40,29.94,6.2,NE,9.2,-,N/A,,Clear,50,2013-12-09 23:50:00
5:20 AM,46.4,23.0,40,29.93,6.2,NE,11.5,-,N/A,,Clear,50,2013-12-10 00:50:00
6:20 AM,46.4,23.0,40,29.95,6.2,ENE,11.5,17.3,N/A,,Clear,60,2013-12-10 01:50:00
7:20 AM,46.4,21.2,37,29.96,5.6,NE,11.5,-,N/A,,Haze,50,2013-12-10 02:50:00
8:20 AM,50.0,21.2,32,29.95,-9999.0,ENE,11.5,-,N/A,,Partly Cloudy,60,2013-12-10 03:50:00
8:57 AM,53.6,23.0,30,29.93,2.5,ENE,11.5,17.3,N/A,,Scattered Clouds,70,2013-12-10 04:27:00
9:12 AM,53.6,23.0,30,29.92,3.1,ENE,11.5,17.3,N/A,,Scattered Clouds,60,2013-12-10 04:42:00
9:20 AM,55.4,23.0,29,29.92,3.1,ENE,11.5,17.3,N/A,,Scattered Clouds,60,2013-12-10 04:50:00
10:20 AM,60.8,21.2,22,29.88,5.6,ENE,11.5,17.3,N/A,,Partly Cloudy,70,2013-12-10 05:50:00
11:20 AM,66.2,24.8,21,29.81,6.2,East,11.5,-,N/A,,Partly Cloudy,100,2013-12-10 06:50:00
12:20 PM,68.0,30.2,24,29.76,6.2,SE,11.5,-,N/A,,Scattered Clouds,130,2013-12-10 07:50:00
1:20 PM,69.8,32.0,25,29.70,6.2,SSE,10.4,-,N/A,,Scattered Clouds,150,2013-12-10 08:50:00
1:25 PM,69.8,32.0,25,29.70,6.2,SE,8.1,19.6,N/A,,Scattered Clouds,140,2013-12-10 08:55:00
2:20 PM,71.6,33.8,25,29.65,5.0,SSE,8.1,16.1,N/A,,Scattered Clouds,150,2013-12-10 09:50:00
3:20 PM,71.6,33.8,25,29.63,3.7,SSW,15.0,24.2,N/A,,Widespread Dust,200,2013-12-10 10:50:00
3:30 PM,-9999,-9999,N/A,-9999,-9999.0,North,-9999.0,-,N/A,,Volcanic Ash,0,2013-12-10 11:00:00
4:20 PM,73.4,32.0,22,29.63,3.7,SSW,15.0,21.9,N/A,,Widespread Dust,200,2013-12-10 11:50:00
5:20 PM,69.8,32.0,25,29.66,4.3,SSW,8.1,15.0,N/A,,Scattered Clouds,200,2013-12-10 12:50:00
6:20 PM,68.0,33.8,28,29.70,5.0,South,10.4,-,N/A,,Scattered Clouds,180,2013-12-10 13:50:00
6:47 PM,66.2,39.2,37,29.73,-9999.0,South,28.8,33.4,N/A,Rain,Light Blowing Widespread Dust,180,2013-12-10 14:17:00
7:20 PM,62.6,39.2,42,29.75,5.6,South,8.1,-,N/A,,Scattered Clouds,190,2013-12-10 14:50:00
8:20 PM,60.8,44.6,55,29.76,6.2,Calm,Calm,-,N/A,,Scattered Clouds,0,2013-12-10 15:50:00
9:20 PM,60.8,39.2,45,29.77,6.2,Variable,4.6,-,N/A,,Mostly Cloudy,0,2013-12-10 16:50:00
9:59 PM,60.8,39.2,45,29.83,5.6,West,18.4,24.2,N/A,Rain,Light Rain Showers,260,2013-12-10 17:29:00
10:20 PM,60.8,41.0,48,29.82,5.0,NW,10.4,-,N/A,,Mostly Cloudy,320,2013-12-10 17:50:00
11:20 PM,59.0,41.0,51,29.87,3.1,Variable,3.5,-,N/A,,Mostly Cloudy,0,2013-12-10 18:50:00
11:42 PM,57.2,42.8,59,29.86,3.1,Variable,6.9,-,N/A,Rain,Light Rain,0,2013-12-10 19:12:00